Time,TemperatureF,DewpointF,PressureIn,WindDirection,WindDirectionDegrees,WindSpeedMPH,WindSpeedGustMPH,Humidity,HourlyPrecipIn,Conditions,Clouds,dailyrainin,SolarRadiationWatts/m^2,SoftwareType,DateUTC
2013-08-02 00:02:00,66.0,46.0,28.77,NNW,331,0.0,3.0,48,0.00,,,0.00,0.000000,,2013-08-02 07:02:00,
2013-08-02 00:12:00,66.0,46.0,28.77,NNW,331,0.0,3.0,48,0.00,,,0.00,0.000000,,2013-08-02 07:12:00,
2013-08-02 00:22:00,65.0,45.0,28.77,NW,319,0.0,1.0,49,0.00,,,0.00,0.000000,,2013-08-02 07:22:00,
2013-08-02 00:33:00,64.0,45.0,28.76,SSW,192,1.0,3.0,50,0.00,,,0.00,0.000000,,2013-08-02 07:33:00,
2013-08-02 00:44:00,64.0,45.0,28.76,SSW,192,1.0,3.0,50,0.00,,,0.00,0.000000,,2013-08-02 07:44:00,
2013-08-02 00:53:00,63.0,45.0,28.76,SSW,192,0.0,2.0,52,0.00,,,0.00,0.000000,,2013-08-02 07:53:00,
2013-08-02 01:02:00,63.0,45.0,28.76,South,183,0.0,2.0,52,0.00,,,0.00,0.000000,,2013-08-02 08:02:00,
2013-08-02 01:12:00,63.0,45.0,28.76,South,183,0.0,2.0,52,0.00,,,0.00,0.000000,,2013-08-02 08:12:00,
2013-08-02 01:22:00,62.0,45.0,28.76,South,183,0.0,0.0,54,0.00,,,0.00,0.000000,,2013-08-02 08:22:00,
2013-08-02 01:33:00,61.0,45.0,28.76,South,183,0.0,0.0,55,0.00,,,0.00,0.000000,,2013-08-02 08:33:00,
2013-08-02 01:43:00,61.0,45.0,28.76,South,183,0.0,0.0,55,0.00,,,0.00,0.000000,,2013-08-02 08:43:00,
2013-08-02 01:54:00,60.0,45.0,28.76,South,183,0.0,0.0,57,0.00,,,0.00,0.000000,,2013-08-02 08:54:00,
2013-08-02 02:01:00,59.0,44.0,28.76,South,183,0.0,0.0,58,0.00,,,0.00,0.000000,,2013-08-02 09:01:00,
2013-08-02 02:12:00,59.0,44.0,28.76,South,183,0.0,0.0,58,0.00,,,0.00,0.000000,,2013-08-02 09:12:00,
2013-08-02 02:22:00,59.0,45.0,28.75,South,183,0.0,0.0,59,0.00,,,0.00,0.000000,,2013-08-02 09:22:00,
2013-08-02 02:33:00,59.0,45.0,28.75,South,183,0.0,0.0,59,0.00,,,0.00,0.000000,,2013-08-02 09:33:00,
2013-08-02 02:43:00,58.0,44.0,28.75,South,183,0.0,0.0,60,0.00,,,0.00,0.000000,,2013-08-02 09:43:00,
2013-08-02 02:53:00,57.0,44.0,28.75,South,183,0.0,0.0,61,0.00,,,0.00,0.000000,,2013-08-02 09:53:00,
2013-08-02 03:02:00,57.0,44.0,28.75,South,183,0.0,0.0,62,0.00,,,0.00,0.000000,,2013-08-02 10:02:00,
2013-08-02 03:12:00,57.0,44.0,28.75,South,183,0.0,0.0,62,0.00,,,0.00,0.000000,,2013-08-02 10:12:00,
2013-08-02 03:23:00,56.0,44.0,28.75,South,183,0.0,0.0,63,0.00,,,0.00,0.000000,,2013-08-02 10:23:00,
2013-08-02 03:33:00,55.0,43.0,28.74,South,183,0.0,0.0,64,0.00,,,0.00,0.000000,,2013-08-02 10:33:00,
2013-08-02 03:43:00,55.0,43.0,28.74,South,183,0.0,0.0,64,0.00,,,0.00,0.000000,,2013-08-02 10:43:00,
2013-08-02 03:52:00,55.0,43.0,28.74,South,183,0.0,0.0,65,0.00,,,0.00,0.000000,,2013-08-02 10:52:00,
2013-08-02 04:02:00,54.0,43.0,28.74,South,183,0.0,0.0,66,0.00,,,0.00,0.000000,,2013-08-02 11:02:00,
2013-08-02 04:12:00,54.0,43.0,28.74,South,183,0.0,0.0,66,0.00,,,0.00,0.000000,,2013-08-02 11:12:00,
2013-08-02 04:22:00,54.0,43.0,28.74,South,183,0.0,0.0,65,0.00,,,0.00,0.000000,,2013-08-02 11:22:00,
2013-08-02 04:32:00,54.0,43.0,28.74,South,183,0.0,0.0,65,0.00,,,0.00,0.000000,,2013-08-02 11:32:00,
2013-08-02 04:42:00,54.0,43.0,28.74,South,183,0.0,0.0,65,0.00,,,0.00,0.000000,,2013-08-02 11:42:00,
2013-08-02 04:52:00,54.0,43.0,28.74,South,183,0.0,0.0,66,0.00,,,0.00,0.000000,,2013-08-02 11:52:00,
2013-08-02 05:01:00,53.0,42.0,28.74,South,183,0.0,0.0,67,0.00,,,0.00,0.000000,,2013-08-02 12:01:00,
2013-08-02 05:11:00,53.0,42.0,28.74,South,183,0.0,0.0,67,0.00,,,0.00,0.000000,,2013-08-02 12:11:00,
2013-08-02 05:22:00,53.0,43.0,28.74,South,183,0.0,0.0,68,0.00,,,0.00,0.000000,,2013-08-02 12:22:00,
2013-08-02 05:32:00,52.0,41.0,28.74,South,183,0.0,0.0,67,0.00,,,0.00,0.000000,,2013-08-02 12:32:00,
2013-08-02 05:42:00,52.0,41.0,28.74,South,183,0.0,0.0,67,0.00,,,0.00,0.000000,,2013-08-02 12:42:00,
2013-08-02 05:52:00,53.0,42.0,28.74,South,183,0.0,0.0,66,0.00,,,0.00,0.000000,,2013-08-02 12:52:00,
2013-08-02 06:01:00,53.0,42.0,28.74,South,183,0.0,0.0,66,0.00,,,0.00,0.000000,,2013-08-02 13:01:00,
2013-08-02 06:12:00,53.0,42.0,28.74,South,183,0.0,0.0,66,0.00,,,0.00,0.000000,,2013-08-02 13:12:00,
2013-08-02 06:22:00,52.0,41.0,28.75,South,183,0.0,0.0,66,0.00,,,0.00,0.000000,,2013-08-02 13:22:00,
2013-08-02 06:43:00,52.0,41.0,28.75,South,183,0.0,0.0,66,0.00,,,0.00,5.000000,,2013-08-02 13:43:00,
2013-08-02 06:52:00,53.0,42.0,28.75,South,183,0.0,0.0,66,0.00,,,0.00,11.000000,,2013-08-02 13:52:00,
2013-08-02 07:02:00,52.0,41.0,28.76,South,183,0.0,0.0,66,0.00,,,0.00,14.000000,,2013-08-02 14:02:00,
2013-08-02 07:12:00,52.0,41.0,28.76,South,183,0.0,0.0,66,0.00,,,0.00,14.000000,,2013-08-02 14:12:00,
2013-08-02 07:22:00,52.0,41.0,28.76,South,183,0.0,0.0,66,0.00,,,0.00,18.000000,,2013-08-02 14:22:00,
2013-08-02 07:32:00,52.0,41.0,28.76,South,183,0.0,0.0,66,0.00,,,0.00,18.000000,,2013-08-02 14:32:00,
2013-08-02 07:43:00,53.0,42.0,28.77,South,183,0.0,0.0,66,0.00,,,0.00,32.000000,,2013-08-02 14:43:00,
2013-08-02 07:52:00,53.0,42.0,28.77,South,183,0.0,0.0,65,0.00,,,0.00,53.000000,,2013-08-02 14:52:00,
2013-08-02 08:03:00,54.0,42.0,28.77,South,183,0.0,0.0,64,0.00,,,0.00,130.000000,,2013-08-02 15:03:00,
2013-08-02 08:12:00,54.0,42.0,28.77,South,183,0.0,0.0,64,0.00,,,0.00,130.000000,,2013-08-02 15:12:00,
2013-08-02 08:32:00,56.0,43.0,28.78,South,183,0.0,0.0,62,0.00,,,0.00,246.000000,,2013-08-02 15:32:00,
2013-08-02 08:43:00,60.0,45.0,28.78,South,183,0.0,0.0,58,0.00,,,0.00,292.000000,,2013-08-02 15:43:00,
2013-08-02 08:52:00,63.0,47.0,28.78,South,183,0.0,0.0,55,0.00,,,0.00,338.000000,,2013-08-02 15:52:00,
2013-08-02 09:01:00,63.0,47.0,28.78,South,183,0.0,0.0,55,0.00,,,0.00,338.000000,,2013-08-02 16:01:00,
2013-08-02 09:12:00,65.0,47.0,28.78,South,183,0.0,1.0,52,0.00,,,0.00,387.000000,,2013-08-02 16:12:00,
2013-08-02 09:32:00,68.0,49.0,28.78,South,183,0.0,1.0,50,0.00,,,0.00,432.000000,,2013-08-02 16:32:00,
2013-08-02 09:43:00,71.0,50.0,28.77,South,183,0.0,1.0,47,0.00,,,0.00,478.000000,,2013-08-02 16:43:00,
2013-08-02 09:52:00,73.0,50.0,28.77,South,183,0.0,1.0,44,0.00,,,0.00,524.000000,,2013-08-02 16:52:00,
2013-08-02 10:02:00,73.0,50.0,28.77,South,183,0.0,1.0,44,0.00,,,0.00,524.000000,,2013-08-02 17:02:00,
2013-08-02 10:12:00,76.0,50.0,28.77,South,183,0.0,1.0,40,0.00,,,0.00,566.000000,,2013-08-02 17:12:00,
2013-08-02 10:22:00,76.0,50.0,28.77,South,183,0.0,1.0,40,0.00,,,0.00,566.000000,,2013-08-02 17:22:00,
2013-08-02 10:34:00,78.0,47.0,28.77,South,183,0.0,2.0,33,0.00,,,0.00,610.000000,,2013-08-02 17:34:00,
2013-08-02 10:43:00,80.0,47.0,28.76,SSW,208,0.0,3.0,32,0.00,,,0.00,650.000000,,2013-08-02 17:43:00,
2013-08-02 10:52:00,80.0,47.0,28.76,SSW,208,0.0,3.0,32,0.00,,,0.00,650.000000,,2013-08-02 17:52:00,
2013-08-02 11:02:00,81.0,47.0,28.76,SSW,204,0.0,2.0,31,0.00,,,0.00,687.000000,,2013-08-02 18:02:00,
2013-08-02 11:32:00,82.0,47.0,28.76,SW,229,0.0,3.0,30,0.00,,,0.00,758.000000,,2013-08-02 18:32:00,
2013-08-02 11:43:00,83.0,49.0,28.75,SW,225,2.0,5.0,31,0.00,,,0.00,789.000000,,2013-08-02 18:43:00,
2013-08-02 11:52:00,83.0,49.0,28.75,SW,225,2.0,5.0,31,0.00,,,0.00,789.000000,,2013-08-02 18:52:00,
2013-08-02 12:01:00,85.0,46.0,28.75,WSW,246,1.0,3.0,26,0.00,,,0.00,819.000000,,2013-08-02 19:01:00,
2013-08-02 12:12:00,86.0,47.0,28.75,South,173,1.0,4.0,26,0.00,,,0.00,844.000000,,2013-08-02 19:12:00,
2013-08-02 12:32:00,87.0,46.0,28.74,SSW,213,1.0,3.0,24,0.00,,,0.00,868.000000,,2013-08-02 19:32:00,
2013-08-02 12:42:00,88.0,44.0,28.74,NE,53,1.0,3.0,22,0.00,,,0.00,881.000000,,2013-08-02 19:42:00,
2013-08-02 12:52:00,88.0,44.0,28.74,NE,53,1.0,3.0,22,0.00,,,0.00,881.000000,,2013-08-02 19:52:00,
2013-08-02 13:02:00,88.0,43.0,28.74,WSW,239,1.0,4.0,21,0.00,,,0.00,900.000000,,2013-08-02 20:02:00,
2013-08-02 13:12:00,90.0,42.0,28.73,South,175,0.0,3.0,19,0.00,,,0.00,914.000000,,2013-08-02 20:12:00,
2013-08-02 13:22:00,90.0,42.0,28.73,South,175,0.0,3.0,19,0.00,,,0.00,914.000000,,2013-08-02 20:22:00,
2013-08-02 13:32:00,90.0,42.0,28.73,East,83,0.0,3.0,19,0.00,,,0.00,916.000000,,2013-08-02 20:32:00,
2013-08-02 13:43:00,93.0,42.0,28.73,SSW,211,1.0,4.0,17,0.00,,,0.00,925.000000,,2013-08-02 20:43:00,
2013-08-02 13:52:00,93.0,42.0,28.72,South,184,2.0,5.0,17,0.00,,,0.00,926.000000,,2013-08-02 20:52:00,
2013-08-02 14:02:00,93.0,42.0,28.72,South,184,2.0,5.0,17,0.00,,,0.00,926.000000,,2013-08-02 21:02:00,
2013-08-02 14:12:00,93.0,40.0,28.72,West,263,0.0,4.0,16,0.00,,,0.00,923.000000,,2013-08-02 21:12:00,
2013-08-02 14:32:00,93.0,42.0,28.71,SSE,160,0.0,3.0,17,0.00,,,0.00,911.000000,,2013-08-02 21:32:00,
2013-08-02 14:43:00,93.0,46.0,28.71,WSW,248,2.0,5.0,20,0.00,,,0.00,895.000000,,2013-08-02 21:43:00,
2013-08-02 14:52:00,93.0,46.0,28.71,WSW,248,2.0,5.0,20,0.00,,,0.00,895.000000,,2013-08-02 21:52:00,
2013-08-02 15:02:00,93.0,46.0,28.71,SW,223,2.0,6.0,20,0.00,,,0.00,884.000000,,2013-08-02 22:02:00,
2013-08-02 15:11:00,92.0,49.0,28.70,SW,232,3.0,5.0,23,0.00,,,0.00,860.000000,,2013-08-02 22:11:00,
2013-08-02 15:32:00,92.0,50.0,28.70,SSW,205,2.0,5.0,24,0.00,,,0.00,842.000000,,2013-08-02 22:32:00,
2013-08-02 15:43:00,91.0,49.0,28.70,WSW,247,2.0,5.0,24,0.00,,,0.00,817.000000,,2013-08-02 22:43:00,
2013-08-02 15:52:00,91.0,49.0,28.70,WSW,247,2.0,5.0,24,0.00,,,0.00,817.000000,,2013-08-02 22:52:00,
2013-08-02 16:02:00,92.0,50.0,28.69,South,178,2.0,6.0,24,0.00,,,0.00,789.000000,,2013-08-02 23:02:00,
2013-08-02 16:12:00,92.0,50.0,28.69,South,178,2.0,6.0,24,0.00,,,0.00,789.000000,,2013-08-02 23:12:00,
2013-08-02 16:21:00,91.0,49.0,28.69,WSW,242,2.0,5.0,24,0.00,,,0.00,758.000000,,2013-08-02 23:21:00,
2013-08-02 16:32:00,91.0,49.0,28.69,WSW,242,2.0,5.0,24,0.00,,,0.00,758.000000,,2013-08-02 23:32:00,
2013-08-02 16:43:00,91.0,49.0,28.69,SW,232,3.0,5.0,24,0.00,,,0.00,687.000000,,2013-08-02 23:43:00,
2013-08-02 16:53:00,90.0,49.0,28.69,SW,236,2.0,5.0,25,0.00,,,0.00,649.000000,,2013-08-02 23:53:00,
2013-08-02 17:02:00,90.0,49.0,28.69,SW,236,2.0,5.0,25,0.00,,,0.00,649.000000,,2013-08-03 00:02:00,
2013-08-02 17:22:00,90.0,49.0,28.69,SW,227,3.0,5.0,25,0.00,,,0.00,610.000000,,2013-08-03 00:22:00,
2013-08-02 17:32:00,89.0,50.0,28.69,SW,218,2.0,6.0,26,0.00,,,0.00,568.000000,,2013-08-03 00:32:00,
2013-08-02 17:43:00,88.0,49.0,28.69,SSW,197,3.0,5.0,26,0.00,,,0.00,185.000000,,2013-08-03 00:43:00,
2013-08-02 17:52:00,87.0,48.0,28.68,SW,220,2.0,5.0,26,0.00,,,0.00,47.000000,,2013-08-03 00:52:00,
2013-08-02 18:02:00,87.0,48.0,28.68,SW,220,2.0,5.0,26,0.00,,,0.00,47.000000,,2013-08-03 01:02:00,
2013-08-02 18:12:00,87.0,48.0,28.68,SW,229,2.0,4.0,26,0.00,,,0.00,46.000000,,2013-08-03 01:12:00,
2013-08-02 18:21:00,87.0,48.0,28.68,SW,229,2.0,4.0,26,0.00,,,0.00,46.000000,,2013-08-03 01:21:00,
2013-08-02 18:32:00,86.0,48.0,28.68,SW,232,2.0,5.0,27,0.00,,,0.00,60.000000,,2013-08-03 01:32:00,
2013-08-02 18:42:00,86.0,49.0,28.68,SW,229,1.0,4.0,28,0.00,,,0.00,35.000000,,2013-08-03 01:42:00,
2013-08-02 19:02:00,85.0,49.0,28.68,SSW,194,1.0,4.0,29,0.00,,,0.00,33.000000,,2013-08-03 02:02:00,
2013-08-02 19:22:00,84.0,49.0,28.68,SW,224,0.0,4.0,30,0.00,,,0.00,30.000000,,2013-08-03 02:22:00,
2013-08-02 19:32:00,83.0,48.0,28.68,SSW,200,1.0,3.0,30,0.00,,,0.00,26.000000,,2013-08-03 02:32:00,
2013-08-02 19:43:00,82.0,48.0,28.68,South,187,1.0,3.0,31,0.00,,,0.00,23.000000,,2013-08-03 02:43:00,
2013-08-02 19:52:00,82.0,48.0,28.68,South,187,1.0,3.0,31,0.00,,,0.00,23.000000,,2013-08-03 02:52:00,
2013-08-02 20:01:00,82.0,49.0,28.68,SSE,154,0.0,2.0,32,0.00,,,0.00,21.000000,,2013-08-03 03:01:00,
2013-08-02 20:11:00,81.0,49.0,28.69,SSE,158,0.0,2.0,33,0.00,,,0.00,14.000000,,2013-08-03 03:11:00,
2013-08-02 20:32:00,80.0,48.0,28.69,SSE,158,0.0,1.0,33,0.00,,,0.00,7.000000,,2013-08-03 03:32:00,
2013-08-02 20:43:00,79.0,48.0,28.69,South,174,0.0,2.0,34,0.00,,,0.00,0.000000,,2013-08-03 03:43:00,
2013-08-02 20:53:00,78.0,48.0,28.70,South,175,0.0,1.0,35,0.00,,,0.00,0.000000,,2013-08-03 03:53:00,
2013-08-02 21:02:00,78.0,48.0,28.70,South,175,0.0,1.0,35,0.00,,,0.00,0.000000,,2013-08-03 04:02:00,
2013-08-02 21:12:00,77.0,49.0,28.70,South,175,0.0,0.0,37,0.00,,,0.00,0.000000,,2013-08-03 04:12:00,
2013-08-02 21:22:00,77.0,49.0,28.70,South,175,0.0,0.0,37,0.00,,,0.00,0.000000,,2013-08-03 04:22:00,
2013-08-02 21:32:00,75.0,48.0,28.70,South,175,0.0,0.0,38,0.00,,,0.00,0.000000,,2013-08-03 04:32:00,
2013-08-02 21:43:00,74.0,49.0,28.71,South,175,0.0,1.0,41,0.00,,,0.00,0.000000,,2013-08-03 04:43:00,
2013-08-02 22:02:00,72.0,48.0,28.72,South,175,0.0,0.0,42,0.00,,,0.00,0.000000,,2013-08-03 05:02:00,
2013-08-02 22:11:00,72.0,48.0,28.72,South,175,0.0,0.0,43,0.00,,,0.00,0.000000,,2013-08-03 05:11:00,
2013-08-02 22:32:00,71.0,48.0,28.72,South,175,0.0,0.0,44,0.00,,,0.00,0.000000,,2013-08-03 05:32:00,
2013-08-02 22:42:00,69.0,47.0,28.71,South,175,0.0,0.0,45,0.00,,,0.00,0.000000,,2013-08-03 05:42:00,
2013-08-02 23:02:00,69.0,47.0,28.72,ESE,102,0.0,0.0,46,0.00,,,0.00,0.000000,,2013-08-03 06:02:00,
2013-08-02 23:12:00,68.0,46.0,28.71,ESE,102,0.0,0.0,46,0.00,,,0.00,0.000000,,2013-08-03 06:12:00,
2013-08-02 23:32:00,67.0,47.0,28.71,ESE,102,0.0,0.0,48,0.00,,,0.00,0.000000,,2013-08-03 06:32:00,
2013-08-02 23:42:00,66.0,46.0,28.71,ESE,102,0.0,0.0,49,0.00,,,0.00,0.000000,,2013-08-03 06:42:00,
2013-08-02 23:52:00,66.0,46.0,28.71,ESE,102,0.0,0.0,49,0.00,,,0.00,0.000000,,2013-08-03 06:52:00,